This is the latest recevied weather packets stored in our database for station/object KB4MLW-13. If no packets are shown the sender has not sent any weather packets the latest 10 day(s).
| Time | Temp. | Humidity | Pressure | Rain* | Wind** | Luminosity | Snow |
|---|---|---|---|---|---|---|---|
| 1788298888 | 33.33° C | 59% | 1000.2 hPa | 0 mm | - | - | - |
| 1788298828 | 33.89° C | 60% | 1000 hPa | 0 mm | - | - | - |
| 1788298768 | 33.89° C | 64% | 1000.1 hPa | 0 mm | - | - | - |
| 1788298680 | 33.89° C | 60% | 1000.1 hPa | 0 mm | - | - | - |
| 1788298618 | 33.89° C | 62% | 1000.3 hPa | 0 mm | - | - | - |
| 1788298558 | 33.89° C | 60% | 1000.1 hPa | 0 mm | - | - | - |
| 1788298498 | 33.89° C | 60% | 1000.2 hPa | 0 mm | - | - | - |
| 1788298410 | 33.89° C | 58% | 1000.1 hPa | 0 mm | - | - | - |
| 1788298348 | 33.89° C | 58% | 1000.4 hPa | 0 mm | - | - | - |
| 1788298288 | 34.44° C | 64% | 1000.4 hPa | 0 mm | - | - | - |
| 1788298228 | 34.44° C | 62% | 1000.2 hPa | 0 mm | - | - | - |
| 1788298139 | 33.89° C | 62% | 1000.1 hPa | 0 mm | - | - | - |
| 1788298049 | 34.44° C | 60% | 1000.2 hPa | 0 mm | - | - | - |
| 1788297959 | 34.44° C | 59% | 1000.4 hPa | 0 mm | - | - | - |
| 1788297869 | 34.44° C | 57% | 1000.4 hPa | 0 mm | - | - | - |
| 1788297809 | 35° C | 61% | 1000 hPa | 0 mm | - | - | - |
| 1788297718 | 35° C | 61% | 1000.3 hPa | 0 mm | - | - | - |
| 1788297629 | 35° C | 61% | 1000.4 hPa | 0 mm | - | - | - |
| 1788297568 | 35° C | 59% | 1000.3 hPa | 0 mm | - | - | - |
| 1788297508 | 35° C | 61% | 1000.2 hPa | 0 mm | - | - | - |
| 1788297418 | 35° C | 59% | 1000.2 hPa | 0 mm | - | - | - |
| 1788297330 | 35° C | 59% | 1000.3 hPa | 0 mm | - | - | - |
| 1788297238 | 35° C | 59% | 1000.3 hPa | 0 mm | - | - | - |
| 1788297178 | 34.44° C | 59% | 1000.3 hPa | 0 mm | - | - | - |
| 1788297118 | 34.44° C | 60% | 1000.3 hPa | 0 mm | - | - | - |
* Rain latest hour (hover to see other rain measurements)
** Current wind speed in m/s (hover to see current wind gust speed)